Total_Precipitation_Accumulation
1.61 1.80 1.79 1.64 1.62 1.75 1.69 1.67 1.80 1.83 1.81 1.86 1.87 1.84 1.83 1.97 2.19 2.39 2.37 2.52 2.64 2.70 2.69 2.59 2.47 2.51 2.64 2.56 2.70 2.86 3.09 3.31 3.07 2.75 2.61 2.55 2.52 2.31 2.11 1.80 1.58 1.47 1.35
1.87 2.10 2.10 1.81 1.64 1.58 1.47 1.49 1.67 1.86 1.88 1.84 1.83 1.80 1.76 1.86 2.12 2.31 2.42 2.67 2.81 2.73 2.65 2.59 2.47 2.57 2.66 2.62 2.69 2.70 2.76 3.04 2.96 2.77 2.72 2.75 2.62 2.38 2.26 2.04 1.68 1.52 1.52
1.67 1.93 1.87 1.64 1.48 1.45 1.46 1.52 1.66 1.79 1.80 1.76 1.78 1.84 1.96 2.07 2.26 2.40 2.51 2.69 2.66 2.57 2.59 2.51 2.39 2.45 2.41 2.47 2.51 2.49 2.48 2.58 2.74 2.66 2.58 2.65 2.57 2.36 2.27 2.11 1.98 2.07 1.88
1.23 1.50 1.51 1.38 1.33 1.36 1.42 1.44 1.44 1.48 1.55 1.61 1.82 2.05 2.21 2.34 2.42 2.46 2.47 2.45 2.45 2.37 2.28 2.20 2.20 2.29 2.35 2.35 2.28 2.27 2.33 2.46 2.54 2.55 2.53 2.62 2.63 2.59 2.45 2.32 2.32 2.29 2.14
1.14 1.34 1.31 1.27 1.28 1.25 1.26 1.34 1.41 1.47 1.52 1.73 1.91 2.02 2.07 2.13 2.21 2.32 2.32 2.26 2.23 2.14 2.03 1.85 1.88 2.16 2.29 2.26 2.09 2.16 2.25 2.35 2.42 2.52 2.57 2.66 2.72 2.84 2.59 2.32 2.26 2.35 2.23
1.03 1.23 1.23 1.21 1.19 1.14 1.19 1.29 1.45 1.55 1.71 1.88 1.91 1.89 1.85 1.61 1.71 1.83 1.87 1.90 1.90 1.87 1.77 1.71 1.72 1.82 1.83 1.86 1.85 1.85 1.91 2.00 2.20 2.45 2.57 2.56 2.54 2.63 2.69 2.55 2.45 2.40 2.37
1.01 1.18 1.26 1.23 1.26 1.24 1.22 1.38 1.58 1.74 1.89 2.00 1.97 1.91 1.80 1.73 1.63 1.51 1.49 1.54 1.67 1.70 1.72 1.77 1.56 1.42 1.54 1.57 1.68 1.66 1.61 1.68 1.80 2.04 2.25 2.27 2.35 2.35 2.58 2.60 2.64 2.70 2.68
1.05 1.26 1.35 1.30 1.35 1.44 1.44 1.53 1.75 1.96 2.10 2.12 2.07 1.99 1.92 1.86 1.76 1.54 1.50 1.46 1.59 1.63 1.63 1.65 1.62 1.54 1.52 1.61 1.68 1.64 1.51 1.45 1.42 1.39 1.62 1.90 2.10 2.31 2.35 2.41 2.53 2.61 2.61
1.10 1.27 1.38 1.44 1.52 1.55 1.59 1.77 1.99 2.17 2.21 2.17 2.21 2.12 2.05 2.08 1.92 1.58 1.43 1.40 1.57 1.61 1.60 1.57 1.54 1.51 1.55 1.42 1.40 1.44 1.43 1.39 1.24 1.23 1.30 1.51 1.70 1.74 1.92 2.16 2.37 2.36 2.32
1.43 1.50 1.68 1.85 2.01 2.09 2.14 2.21 2.26 2.33 2.25 2.21 2.19 2.20 2.13 2.13 2.02 1.53 1.30 1.31 1.50 1.55 1.62 1.60 1.49 1.37 1.33 1.22 1.22 1.37 1.35 1.33 1.33 1.26 1.16 1.18 1.24 1.37 1.43 1.50 1.80 2.01 1.95
1.72 1.79 1.99 2.28 2.45 2.45 2.47 2.42 2.34 2.35 2.36 2.33 2.24 2.21 2.17 2.09 2.00 1.58 1.39 1.41 1.56 1.65 1.64 1.61 1.55 1.40 1.21 1.15 1.12 1.18 1.24 1.21 1.26 1.30 1.25 1.19 1.25 1.36 1.32 1.28 1.43 1.63 1.70
1.97 2.12 2.31 2.54 2.49 2.43 2.60 2.53 2.49 2.56 2.54 2.41 2.30 2.21 2.23 2.18 1.99 1.68 1.43 1.47 1.62 1.74 1.81 1.77 1.67 1.45 1.20 1.11 1.04 1.04 1.01 0.94 0.98 1.11 1.14 1.09 1.11 1.22 1.30 1.28 1.31 1.35 1.40
2.18 2.30 2.36 2.44 2.61 2.77 2.83 2.72 2.63 2.62 2.55 2.36 2.25 2.12 2.04 2.10 2.12 1.71 1.42 1.47 1.56 1.61 1.78 1.82 1.55 1.32 1.15 1.00 0.98 0.97 0.87 0.81 0.92 0.99 0.98 0.96 0.94 1.04 1.24 1.37 1.41 1.41 1.35
2.05 2.05 2.13 2.26 2.40 2.49 2.73 2.79 2.70 2.57 2.50 2.44 2.34 2.18 2.06 2.08 2.07 1.74 1.43 1.41 1.48 1.47 1.55 1.62 1.48 1.30 1.15 1.03 0.97 0.93 0.88 0.90 0.98 0.99 1.00 1.03 1.04 1.09 1.18 1.26 1.36 1.41 1.38
1.98 1.93 1.92 1.95 2.07 2.17 2.27 2.38 2.35 2.34 2.16 2.06 1.97 1.90 1.88 1.90 1.87 1.61 1.41 1.40 1.51 1.56 1.53 1.55 1.54 1.40 1.27 1.17 1.14 1.17 1.18 1.13 1.05 1.04 1.07 1.10 1.08 1.08 1.13 1.19 1.26 1.29 1.24
1.84 1.77 1.79 1.81 1.89 1.94 1.93 1.88 1.72 1.65 1.50 1.35 1.29 1.24 1.25 1.31 1.41 1.26 1.13 1.22 1.37 1.42 1.34 1.36 1.47 1.46 1.39 1.31 1.25 1.25 1.24 1.18 1.11 1.11 1.09 1.08 1.06 1.03 1.06 1.10 1.13 1.14 1.12
1.86 1.72 1.61 1.58 1.64 1.66 1.70 1.80 1.85 1.63 1.42 1.23 1.10 0.96 0.94 1.03 1.11 1.12 1.06 1.08 1.17 1.19 1.15 1.21 1.31 1.36 1.32 1.29 1.24 1.21 1.16 1.17 1.17 1.12 1.07 1.08 1.07 1.02 1.01 1.05 1.06 1.12 1.11
1.79 1.71 1.60 1.57 1.59 1.61 1.65 1.72 1.84 1.83 1.56 1.22 1.08 0.97 0.84 0.80 0.81 0.84 0.84 0.88 0.97 1.00 1.02 1.09 1.14 1.19 1.20 1.21 1.20 1.19 1.14 1.15 1.14 1.12 1.08 1.07 1.08 1.04 1.04 1.05 1.02 1.04 1.10
1.61 1.56 1.50 1.53 1.55 1.54 1.60 1.63 1.63 1.66 1.57 1.38 1.17 0.96 0.79 0.67 0.67 0.70 0.68 0.74 0.90 0.95 0.94 0.97 0.98 0.99 1.04 1.08 1.08 1.12 1.11 1.08 1.07 1.11 1.08 1.05 1.08 1.10 1.10 1.09 1.09 1.09 1.10
1.54 1.42 1.31 1.33 1.35 1.35 1.39 1.43 1.42 1.46 1.42 1.32 1.18 0.92 0.70 0.62 0.68 0.75 0.74 0.83 0.92 0.92 0.87 0.91 0.86 0.85 0.91 0.97 1.04 1.09 1.09 1.11 1.14 1.12 1.09 1.08 1.06 1.08 1.05 1.05 1.09 1.13 1.15
1.49 1.27 1.05 0.95 1.02 1.11 1.21 1.27 1.27 1.26 1.27 1.23 1.05 0.79 0.58 0.52 0.63 0.77 0.86 0.89 0.90 0.89 0.83 0.79 0.75 0.77 0.83 0.90 0.95 0.98 1.04 1.12 1.11 1.08 1.11 1.08 1.03 1.04 1.03 1.04 1.03 1.05 1.10
1.38 1.24 1.06 0.94 0.97 1.02 1.09 1.18 1.19 1.13 1.10 1.07 0.95 0.75 0.59 0.50 0.61 0.72 0.79 0.80 0.79 0.80 0.77 0.74 0.71 0.75 0.78 0.83 0.90 0.95 0.99 1.02 1.03 1.04 1.06 1.05 1.05 1.04 1.05 1.10 1.10 1.09 1.09
1.29 1.22 1.10 1.01 1.03 1.02 1.04 1.11 1.09 1.02 0.97 0.92 0.85 0.76 0.66 0.66 0.71 0.77 0.80 0.79 0.78 0.74 0.72 0.70 0.67 0.67 0.73 0.78 0.80 0.86 0.92 0.92 0.94 0.97 1.02 1.06 1.06 1.07 1.11 1.14 1.11 1.08 1.08
1.15 1.11 0.98 0.93 0.95 0.98 0.95 0.96 0.93 0.88 0.84 0.79 0.75 0.73 0.71 0.73 0.75 0.75 0.76 0.75 0.73 0.66 0.61 0.63 0.65 0.67 0.71 0.75 0.74 0.74 0.77 0.79 0.80 0.86 0.92 0.97 1.00 1.08 1.16 1.19 1.15 1.11 1.16
1.06 1.08 1.00 0.92 0.90 0.91 0.89 0.87 0.83 0.81 0.77 0.71 0.68 0.66 0.66 0.68 0.70 0.73 0.73 0.68 0.62 0.61 0.57 0.59 0.65 0.66 0.62 0.63 0.63 0.63 0.69 0.69 0.67 0.74 0.85 0.97 1.01 1.08 1.20 1.24 1.23 1.22 1.28
0.94 0.97 0.93 0.86 0.82 0.81 0.81 0.86 0.85 0.78 0.72 0.67 0.66 0.67 0.62 0.57 0.57 0.59 0.59 0.57 0.56 0.57 0.57 0.59 0.61 0.62 0.61 0.58 0.59 0.63 0.62 0.60 0.62 0.71 0.74 0.82 0.94 1.03 1.12 1.17 1.14 1.20 1.28